Regional Weather Roundup
Issued by NWS

Home | Current Version | Previous Version | Graphics & Text | Print | Product List | Glossary On
Versions: 1 2 3 4 5 6 7 8 9 10 11 12 13 14 15 16 17 18 19 20 21 22 23 24 25 26 27 28 29 30 31 32 33 34 35 36 37 38 39 40 41 42 43 44 45 46 47 48 49 50
000
ASUS43 KMKX 021421
RWRWI

WISCONSIN REGIONAL WEATHER ROUNDUP
NATIONAL WEATHER SERVICE MILWAUKEE/SULLIVAN WI
900 AM CDT TUE SEP 02 2014

NOTE: "FAIR" INDICATES FEW OR NO CLOUDS BELOW 12,000 FEET WITH NO
SIGNIFICANT WEATHER AND/OR OBSTRUCTIONS TO VISIBILITY.

WIZ001-002-006>008-014>016-023>028-021500-
NORTHWEST WISCONSIN

CITY           SKY/WX    TMP DP  RH WIND       PRES   REMARKS
SUPERIOR ARPT  SUNNY     58  54  85 SW7       29.83S
ASHLAND        PTSUNNY   61  55  81 SW7       29.84R
HAYWARD        MOSUNNY   58  56  93 S3        29.87R
SIREN          MOSUNNY   61  56  82 W3        29.87S
RICE LAKE      MOSUNNY   62  57  84 W5        29.89S
LADYSMITH      PTSUNNY   61  59  94 CALM      29.88S
EAU CLAIRE     PTSUNNY   65  61  87 W8        29.87R
MENOMONIE      MOSUNNY   66  60  80 W9        29.88S
NEW RICHMOND   MOSUNNY   65  60  86 SW7       29.89S
OSCEOLA        SUNNY     64  61  91 CALM      29.91R
$$

WIZ003>005-009-010-017-018-021500-
NORTH CENTRAL WISCONSIN

CITY           SKY/WX    TMP DP  RH WIND       PRES   REMARKS
WOODRUFF       CLOUDY    59  57  91 W3        29.86R
RHINELANDER    CLOUDY    57  55  93 W6        29.87R
EAGLE RIVER    CLOUDY    55  55 100 W6        29.85R
LAND O LAKES   CLOUDY    56  56 100 CALM      29.85S
PHILLIPS       MOSUNNY   60  55  84 W5        29.86S
TOMAHAWK       CLOUDY    56  56  97 CALM      29.87R
MEDFORD        CLOUDY    58  57  96 SW6       29.88R
MERRILL        CLOUDY    57  57  99 CALM      29.86S
$$

WIZ029-030-035-036-043>047-021500-
CENTRAL WISCONSIN

CITY           SKY/WX    TMP DP  RH WIND       PRES   REMARKS
WAUSAU         CLOUDY    61  56  83 S7        29.85F
MOSINEE        NOT AVBL
MARSHFIELD     CLOUDY    62  59  90 W7        29.87S
STEVENS POINT  CLOUDY    60  57  89 SW7       29.89R
WAUPACA        CLOUDY    65  63  96 SW3       29.88S
WAUTOMA        CLOUDY    67  61  81 SW5       29.89S HAZE
WISC RAPIDS    CLOUDY    62  59  90 SW8       29.90R
CAMP DOUGLAS   CLOUDY    63  61  94 SW8       29.90R
$$

WIZ011>013-019>022-031-037>040-048>050-021500-
NORTHEAST WISCONSIN

CITY           SKY/WX    TMP DP  RH WIND       PRES   REMARKS
ANTIGO         RAIN      56  55  97 SW6       29.88R
STURGEON BAY   SUNNY     64  59  82 SW7       29.86R
GREEN BAY      PTSUNNY   65  61  87 SW7       29.87R
MANITOWOC      SUNNY     68  62  81 W7        29.88R
APPLETON       PTSUNNY   64  63  94 SW6       29.89R
CLINTONVILLE   MOSUNNY   61  59  94 SW5       29.87R
OSHKOSH        PTSUNNY   65  61  87 CALM      29.88R
$$

WIZ032>034-041-042-053>061-021500-
SOUTHWEST WISCONSIN

CITY           SKY/WX    TMP DP  RH WIND       PRES   REMARKS
LA CROSSE      CLOUDY    65  59  81 S12       29.90S
SPARTA         CLOUDY    61  59  93 SW3       29.91S
VIROQUA        CLOUDY    59  59 100 W8        29.92F
BOSCOBEL       CLOUDY    64  60  87 SW5       29.92F
PRAIRIE DU CHI PTSUNNY   65  59  80 S5        29.92S
PLATTEVILLE    FAIR      61  60  96 CALM      29.95R
$$

WIZ056-057-062-063-064-067-068-021500-
SOUTH CENTRAL WISCONSIN

CITY           SKY/WX    TMP DP  RH WIND       PRES   REMARKS
BARABOO/DELLS  PTSUNNY   63  59  87 W5        29.92R
LONE ROCK      CLOUDY    64  60  87 W6        29.92F
WATERTOWN      MOSUNNY   66  64  94 W3        29.89S
MADISON        PTSUNNY   68  63  84 CALM      29.90S
MIDDLETON      FAIR      67  64  91 W3        29.91F
MONROE         LGT RAIN  63  61  94 SW7       29.92S
JANESVILLE     PTSUNNY   64  63  94 CALM      29.90R
$$

WIZ051-052-058>065-066-070>072-021500-
SOUTHEAST WISCONSIN

CITY           SKY/WX    TMP DP  RH WIND       PRES   REMARKS
MILWAUKEE      MOSUNNY   73  61  65 CALM      29.88S
WAUKESHA       MOSUNNY   66  63  88 W7        29.90S
MILWAUKEE/TIMM SUNNY     70  61  73 CALM      29.89R
RACINE         MOSUNNY   71  64  78 NW3       29.90R
BURLINGTON     MOSUNNY   64  64 100 CALM      29.90R
KENOSHA        MOSUNNY   70  64  81 CALM      29.90R
FOND DU LAC    PTSUNNY   65  61  87 SW7       29.89R
SHEBOYGAN      SUNNY     67  62  84 W6        29.88S
WEST BEND      PTSUNNY   68  59  73 W5        29.89S
JUNEAU         MOSUNNY   62  60  93 SW5       29.91S
$$

LSZ147-162-021500-
LAKE SUPERIOR

STATION/POSITION TIME  TEMP    WIND        PRES    WAVE
                       AIR SEA DIR/SP/G            HT/PER
                 (UTC) (F)     (DEG/KT/KT) (MB)    (FT/S)
W MID LAKE BUOY  1350   59 57  230/ 10/ 12 1008.4R   1/ 3
DEVILS ISLAND    1400   60     240/ 14/ 18 1009.3R
PORT WING        1340   60     200/  6/ 10 1010.5R
SAXON HARBOR     1340   62     200/  5/  6 1010.2R
$$

LMZ867-665-643>646-021500-
LAKE MICHIGAN

STATION/POSITION TIME  TEMP    WIND        PRES    WAVE
                       AIR SEA DIR/SP/G            HT/PER
                 (UTC) (F)     (DEG/KT/KT) (MB)    (FT/S)
N MID LAKE BUOY  1350   64 65  260/ 10/ 12 1010.0F   2/ 6
NORTHPORT PIER   1300   70      CALM  /  2 1010.5R
KEWAUNEE LAKESHO 1300   62     290/  4/  5 1010.0R
SHEBOYGAN LAKESH 1400   69 50  240/  7/  8 1011.5S
ATWATER BUOY     1400   67     300/  2/  4 1013.2R
MILWAUKEE LAKESH 1400   72     190/  3/  3   N/A
S MID LAKE BUOY  1350   69 70  300/  4/  4 1011.7R   1
KENOSHA   LAKESH 1400   70      CALM  /  2 1012.2R
$$

TC  - TEMPERATURE IN CELSIUS
VSB - VISIBILITY IN STATUTE MILES
WCI - WIND CHILL INDEX
HX  - HEAT INDEX



USA.gov is the U.S. government's official web portal to all federal, state and local government web resources and services.